Del Rio Laughlin AFB, TX

8:20 PM CDT on August 23, 2017 (GMT -0500)
Laughlin Air Force Base

Weather History for KDLF - August, 2013

Change the Weather History Date:

Tuesday, August 6, 2013

  Actual Average Record
Temperature  
Mean Temperature 91 °F -  
Max Temperature 104 °F 99 °F 107 °F (2001)
Min Temperature 78 °F 77 °F 74 °F (2007)
Cooling Degree Days 26    
Growing Degree Days 41 (Base 50)    
Moisture  
Dew Point 63 °F    
Average Humidity 42    
Maximum Humidity 64    
Minimum Humidity 19    
Precipitation  
Precipitation 0.00 in - - ()
Sea Level Pressure  
Sea Level Pressure 29.83 in    
Wind  
Wind Speed 13 mph (SSE)    
Max Wind Speed 18 mph    
Max Gust Speed 23 mph    
Visibility 10 miles    
Events      
Averages and records for this station are not official NWS values.
T = Trace of Precipitation, MM = Missing Value Source: NWS Daily Summary

Daily Weather History Graph

Daily Weather History Graph

Search for Another Location

Airport or City:

Trip Planner

Search our weather history database for the weather conditions in past years. The results will help you decide how hot, cold, wet, or windy it might be!

Date:

Astronomy

Aug. 06, 2013 Rise Set
Actual Time 7:06 AM CDT 8:31 PM CDT
Civil Twilight 6:40 AM CDT 8:56 PM CDT
Nautical Twilight 6:10 AM CDT 9:26 PM CDT
Astronomical Twilight 5:38 AM CDT 9:58 PM CDT
Moon 6:54 AM CDT (8/6) 8:13 PM CDT (8/6)
Length of Visible Light 14h 15m
Length of Day
13h 24m
Waning Crescent, 0% of the Moon is Illuminated
Aug 6
Waning Crescent
Aug 6
New
Aug 14
First Quarter
Aug 20
Full
Aug 28
Last Quarter

Hourly Weather History & Observations

Time (CDT) Temp. Heat Index Dew Point Humidity Pressure Visibility Wind Dir Wind Speed Gust Speed Precip Events Conditions
12:58 AM 88.7 °F 88.0 °F 59.0 °F 37% 29.84 in 10.0 mi SE 17.3 mph - N/A   Clear
1:58 AM 86.5 °F 88.7 °F 65.7 °F 50% 29.84 in 10.0 mi SE 15.0 mph - N/A   Clear
2:58 AM 85.6 °F 87.6 °F 65.5 °F 51% 29.85 in 10.0 mi SE 11.5 mph - N/A   Clear
3:58 AM 84.6 °F 86.3 °F 64.9 °F 52% 29.85 in 10.0 mi SSE 10.4 mph - N/A   Clear
4:58 AM 82.4 °F 84.2 °F 65.5 °F 56% 29.85 in 10.0 mi ESE 8.1 mph - N/A   Clear
5:58 AM 80.2 °F 82.1 °F 65.3 °F 60% 29.85 in 10.0 mi SE 9.2 mph - N/A   Clear
6:58 AM 78.6 °F - 64.8 °F 62% 29.86 in 10.0 mi SE 10.4 mph - N/A   Clear
7:58 AM 79.0 °F - 66.0 °F 64% 29.87 in 10.0 mi ESE 12.7 mph - N/A   Clear
8:58 AM 81.3 °F 84.0 °F 67.6 °F 63% 29.90 in 10.0 mi SE 18.4 mph - N/A   Clear
9:58 AM 83.8 °F 87.5 °F 69.3 °F 61% 29.90 in 10.0 mi SSE 13.8 mph 23.0 mph N/A   Clear
10:58 AM 86.9 °F 91.3 °F 69.6 °F 56% 29.91 in 10.0 mi SSE 16.1 mph - N/A   Clear
11:58 AM 90.0 °F 94.1 °F 68.7 °F 49% 29.89 in 10.0 mi SE 11.5 mph 23.0 mph N/A   Clear
12:58 PM 93.4 °F 98.6 °F 68.9 °F 45% 29.87 in 10.0 mi South 13.8 mph 18.4 mph N/A   Clear
1:58 PM 96.6 °F 100.3 °F 66.2 °F 37% 29.84 in 10.0 mi SSE 16.1 mph 20.7 mph N/A   Clear
2:58 PM 99.7 °F 101.2 °F 62.2 °F 29% 29.81 in 10.0 mi SE 12.7 mph - N/A   Clear
3:58 PM 102.6 °F 103.0 °F 59.7 °F 24% 29.78 in 10.0 mi SSE 12.7 mph 17.3 mph N/A   Clear
4:53 PM 104.0 °F 102.9 °F 55.4 °F 20% 29.81 in 10.0 mi South 15.0 mph 19.6 mph N/A   Clear
4:58 PM 104.0 °F 102.3 °F 54.1 °F 19% 29.76 in 10.0 mi South 16.1 mph - N/A   Clear
5:58 PM 103.3 °F 103.0 °F 57.0 °F 22% 29.75 in 10.0 mi SSE 11.5 mph - N/A   Clear
6:58 PM 102.9 °F 102.4 °F 56.7 °F 22% 29.75 in 10.0 mi South 12.7 mph - N/A   Clear
7:58 PM 101.1 °F 99.8 °F 56.3 °F 22% 29.75 in 10.0 mi SSE 11.5 mph - N/A   Clear
8:58 PM 95.9 °F 93.9 °F 54.5 °F 25% 29.75 in 10.0 mi SSE 5.8 mph - N/A   Clear
9:58 PM 93.4 °F 91.5 °F 55.6 °F 28% 29.79 in 10.0 mi ESE 3.5 mph - N/A   Scattered Clouds
10:58 PM 89.2 °F 90.2 °F 63.5 °F 42% 29.84 in 10.0 mi NW 15.0 mph 18.4 mph N/A   Partly Cloudy
11:58 PM 86.4 °F 87.3 °F 63.1 °F 46% 29.83 in 10.0 mi WNW 5.8 mph - N/A   Clear